Location: New Canada
(47.1017°N, 68.5042°W)
Time: 21:45:34
(UTC+00:00)

RS-44 - Pass Details

Date: 02 April 2023
Orbit: 1175 x 1510 km, 82.5° (Epoch: 02 June)

Event Time Altitude Azimuth Distance (km) Brightness Sun altitude
Rises 04:07:31 0° 355° (N) 4,374 ? -37.7°
Reaches altitude 10° 04:10:47 10° 6° (N) 3,449 ? -37.7°
Maximum altitude 04:17:48 29° 64° (ENE) 2,381 ? -37.9°
Enters shadow 04:19:12 28° 80° (E) 2,450 ? -37.9°
